Flag for Canada Weather past 2 weeks in Drummondville, Quebec, Canada

Now
72 °F

Mild.


Feels Like: 74 °F
Forecast: 57 / 77 °F
Wind: 12 mph from Southwest

Location: Nicolet

Current Time: Aug 2, 2015 at 12:27:44 PM

Latest Report: Aug 2, 2015 at 12:00 PM


Visibility: N/A

Pressure: 29.78 "Hg

Humidity: 72%

Dew point: 63 °F

Location of DrummondvilleLocation

Historic Weather in Drummondville — Graph

°F

Drummondville temperature yesterday

Maximum temperature yesterday: 74 °F (at 5:00 PM)
Minimum temperature yesterday: 59 °F (at 6:00 AM)
Average temperature yesterday: 66 °F

Past Weeks' High & Low Weather Summary

 TemperatureHumidityPressure
High85 °F (Jul 28, 4:00 PM)100% (Jul 27, 6:00 AM)30.02 "Hg (Jul 27, 6:00 AM)
Low55 °F (Jul 25, 5:00 AM)53% (Jul 31, 4:00 PM)29.50 "Hg (Jul 21, 4:00 PM)
Average69 °F83%29.77 "Hg
* Reported Jul 18 11:00 AM — Aug 2 11:00 AM, Drummondville, Weather by CustomWeather, © 2015

Note: Actual official high and low records may vary slightly from our data, if they occured in-between our weather recording intervals... More about our weather records

Advertising

Drummondville weather history for previous 24 hours

 ConditionsComfort  
Time TempWeatherWind HumidityBarometerVisibility
11:00 AM
Sun, Aug 2
71 °FMild.9 mph80%29.79 "HgN/A
10:00 AM68 °FMild.7 mph78%29.79 "HgN/A
9:00 AM65 °FMild.8 mph85%29.79 "HgN/A
8:00 AM63 °FMild.9 mph86%29.78 "HgN/A
7:00 AM61 °FCool.6 mph85%29.77 "HgN/A
6:00 AM59 °FCool.5 mph94%29.76 "HgN/A
5:00 AM60 °FCool.7 mph94%29.75 "HgN/A
4:00 AM58 °FCool.3 mph95%29.75 "HgN/A
3:00 AM58 °FCool.5 mph94%29.75 "HgN/A
2:00 AM60 °FCool.N/A92%29.75 "HgN/A
1:00 AM61 °FCool.7 mph91%29.75 "HgN/A
12:00 AM60 °FCool.3 mph90%29.75 "HgN/A
11:00 PM
Sat, Aug 1
60 °FCool.7 mph96%29.75 "HgN/A
10:00 PM61 °FCool.5 mph89%29.74 "HgN/A
9:00 PM62 °FCool.5 mph90%29.73 "HgN/A
8:00 PM67 °FMild.6 mph75%29.72 "HgN/A
7:00 PM66 °FMild.2 mph77%29.70 "HgN/A
6:00 PM71 °FMild.6 mph67%29.67 "HgN/A
5:00 PM74 °FMild.6 mph64%29.66 "HgN/A
4:00 PM74 °FMild.6 mph69%29.67 "HgN/A
3:00 PM71 °FMild.5 mph72%29.67 "HgN/A
2:00 PM69 °FMild.7 mph76%29.67 "HgN/A
1:00 PM70 °FMild.7 mph75%29.66 "HgN/A
12:00 PM69 °FMild.9 mph77%29.66 "HgN/A
Weather by CustomWeather, © 2015

See weather overviewHow to use our weather pages